{"data":{"norad_id":81301,"intl_designator":"","name":"UNKNOWN","alt_names":[],"object_type":"UNKNOWN","status":"UNKNOWN","operator":null,"country":null,"launch_date":null,"launch_site_code":null,"launch_vehicle":null,"mission":null,"orbit_class":"UNKNOWN","rcs_meters":null,"size_class":null,"mass_kg":null,"dimensions":null,"purposes":[],"wikipedia_slug":null,"has_3d_model":false,"image_url":null,"decayed_at":null,"tle_current":{"epoch":"2026-09-18T12:22:50.871648Z","epoch_age_seconds":186171,"freshness":"STALE","line1":"1 81301U          26261.51586657  .00000130  00000+0  20156-3 0  9993","line2":"2 81301  66.7611 347.5696 0084153  38.9409 334.8364 13.76860139644870","mean_motion":13.76860139,"eccentricity":0.0084153,"inclination_deg":66.7611,"raan_deg":347.5696,"arg_perigee_deg":38.9409,"mean_anomaly_deg":334.8364,"bstar":0.00020156,"rev_number":64487,"period_min":104.58578610939,"perigee_km":913.16534066487,"apogee_km":1036.9237983889,"semimajor_km":7353.1815695269,"source":"CELESTRAK","updated_at":"2026-09-20T09:00:32.385204Z"}}}